| time (UTC) | temp C | wind direction | speed KPH | gust KPH | rain 1hr cm | rain 24hr cm | rain mn cm | humidity % | barometer mb |
| 20260505211526 | 5 | 83 | 0.0 | 8.0 | 0.05 | 0.53 | 0.38 | 76 | 1012.3 |
| 20260505210025 | 6 | 123 | 1.6 | 12.9 | 0.10 | 0.53 | 0.38 | 71 | 1012.2 |
| 20260505204524 | 6 | 137 | 1.6 | 11.3 | 0.13 | 0.53 | 0.38 | 76 | 1012.2 |
| 20260505203020 | 4 | 128 | 6.4 | 14.5 | 0.18 | 0.64 | 0.36 | 81 | 1012.3 |
| 20260505201518 | 4 | 125 | 1.6 | 8.0 | 0.20 | 0.61 | 0.33 | 83 | 1012.5 |
| 20260505200016 | 3 | 89 | 1.6 | 14.5 | 0.20 | 0.58 | 0.30 | 86 | 1012.6 |
| 20260505194516 | 3 | 120 | 1.6 | 8.0 | 0.20 | 0.53 | 0.25 | 88 | 1012.8 |
| 20260505193012 | 3 | 76 | 0.0 | 3.2 | 0.20 | 0.51 | 0.20 | 90 | 1013.0 |
| 20260505191512 | 2 | 28 | 0.0 | 8.0 | 0.15 | 0.46 | 0.15 | 88 | 1012.7 |
| 20260505190017 | 2 | 300 | 1.6 | 6.4 | 0.10 | 0.41 | 0.10 | 88 | 1012.5 |
| 20260505184511 | 2 | 263 | 0.0 | 1.6 | 0.08 | 0.38 | 0.08 | 88 | 1012.4 |
| 20260505183008 | 1 | 260 | 0.0 | 0.0 | 0.03 | 0.33 | 0.03 | 91 | 1012.3 |
| 20260505181503 | 1 | 24 | 0.0 | 1.6 | 0.00 | 0.30 | 0.00 | 90 | 1012.1 |
| 20260505180002 | 1 | 292 | 0.0 | 4.8 | 0.00 | 0.30 | 0.00 | 89 | 1012.0 |
| 20260505174605 | 1 | 63 | 0.0 | 4.8 | 0.00 | 0.30 | 0.00 | 89 | 1011.6 |
| 20260505173058 | 1 | 215 | 0.0 | 0.0 | 0.00 | 0.30 | 0.00 | 86 | 1011.2 |
| 20260505171557 | 1 | 215 | 0.0 | 0.0 | 0.00 | 0.30 | 0.00 | 87 | 1010.9 |
| 20260505170054 | 1 | 215 | 0.0 | 1.6 | 0.00 | 0.30 | 0.00 | 88 | 1010.9 |
| 20260505164600 | 1 | 215 | 0.0 | 6.4 | 0.00 | 0.30 | 0.00 | 90 | 1010.6 |
| 20260505163051 | 1 | 205 | 0.0 | 3.2 | 0.00 | 0.30 | 0.00 | 90 | 1010.4 |
| 20260505161550 | 0 | 295 | 0.0 | 4.8 | 0.00 | 0.30 | 0.00 | 90 | 1010.1 |
| 20260505153044 | 0 | 269 | 0.0 | 0.0 | 0.00 | 0.30 | 0.00 | 90 | 1009.0 |
| 20260505151543 | 0 | 46 | 0.0 | 0.0 | 0.00 | 0.30 | 0.00 | 90 | 1008.8 |
| 20260505124521 | 0 | 160 | 8.0 | 16.1 | 0.00 | 0.30 | 0.00 | 83 | 1007.8 |
| 20260505123012 | 0 | 176 | 6.4 | 16.1 | 0.00 | 0.30 | 0.00 | 84 | 1007.7 |
| 20260505121512 | 0 | 263 | 6.4 | 16.1 | 0.00 | 0.30 | 0.00 | 85 | 1007.7 |
| 20260505120022 | 0 | 256 | 4.8 | 12.9 | 0.00 | 0.30 | 0.00 | 87 | 1007.8 |
| 20260505114508 | 0 | 295 | 1.6 | 12.9 | 0.00 | 0.30 | 0.00 | 86 | 1007.9 |
| 20260505113007 | 0 | 275 | 1.6 | 11.3 | 0.00 | 0.30 | 0.00 | 84 | 1007.7 |
| 20260505111514 | 0 | 138 | 4.8 | 17.7 | 0.00 | 0.30 | 0.00 | 84 | 1007.9 |
| 20260505101508 | 0 | 257 | 0.0 | 4.8 | 0.00 | 0.30 | 0.00 | 92 | 1007.7 |
| 20260505100002 | 0 | 76 | 0.0 | 0.0 | 0.00 | 0.30 | 0.00 | 92 | 1008.0 |
| 20260505094601 | 0 | 76 | 0.0 | 1.6 | 0.00 | 0.30 | 0.00 | 92 | 1008.2 |
| 20260505093102 | 0 | 75 | 0.0 | 4.8 | 0.00 | 0.30 | 0.00 | 91 | 1008.2 |
| 20260505091607 | 0 | 38 | 0.0 | 8.0 | 0.00 | 0.30 | 0.00 | 90 | 1008.4 |
| 20260505090057 | 0 | 11 | 4.8 | 12.9 | 0.00 | 0.30 | 0.00 | 88 | 1008.4 |
| 20260505084556 | 0 | 63 | 4.8 | 9.7 | 0.00 | 0.30 | 0.00 | 87 | 1008.5 |
| 20260505083057 | 1 | 246 | 0.0 | 11.3 | 0.00 | 0.30 | 0.00 | 79 | 1008.6 |
| 20260505081550 | 1 | 304 | 1.6 | 17.7 | 0.00 | 0.30 | 0.00 | 79 | 1008.5 |
| 20260505080050 | 1 | 196 | 0.0 | 9.7 | 0.00 | 0.30 | 0.00 | 80 | 1008.7 |
| 20260505074547 | 1 | 256 | 3.2 | 11.3 | 0.00 | 0.30 | 0.00 | 80 | 1009.0 |
| 20260505073053 | 1 | 277 | 6.4 | 16.1 | 0.00 | 0.30 | 0.30 | 82 | 1009.1 |
| 20260505071555 | 1 | 232 | 3.2 | 14.5 | 0.00 | 0.30 | 0.30 | 81 | 1009.1 |
| 20260505070045 | 1 | 236 | 3.2 | 12.9 | 0.00 | 0.30 | 0.30 | 82 | 1009.0 |
| 20260505064543 | 1 | 279 | 1.6 | 9.7 | 0.00 | 0.30 | 0.30 | 81 | 1009.0 |
| 20260505063042 | 1 | 211 | 1.6 | 11.3 | 0.00 | 0.30 | 0.30 | 82 | 1009.1 |
| 20260505061545 | 1 | 269 | 3.2 | 11.3 | 0.00 | 0.30 | 0.30 | 81 | 1009.2 |
| 20260505060047 | 1 | 291 | 3.2 | 17.7 | 0.00 | 0.30 | 0.30 | 81 | 1009.1 |
| 20260505054541 | 1 | 261 | 0.0 | 12.9 | 0.00 | 0.30 | 0.30 | 82 | 1009.1 |
| 20260505053040 | 1 | 300 | 4.8 | 11.3 | 0.00 | 0.30 | 0.30 | 80 | 1009.0 |
| 20260505051556 | 1 | 271 | 1.6 | 11.3 | 0.00 | 0.30 | 0.30 | 77 | 1008.9 |
| 20260505041538 | 2 | 322 | 4.8 | 12.9 | 0.00 | 0.30 | 0.30 | 77 | 1008.2 |
| 20260505040037 | 2 | 284 | 1.6 | 14.5 | 0.00 | 0.30 | 0.30 | 71 | 1007.9 |
| 20260505034535 | 2 | 206 | 3.2 | 20.9 | 0.00 | 0.30 | 0.30 | 69 | 1007.7 |
| 20260505033037 | 2 | 273 | 6.4 | 16.1 | 0.00 | 0.30 | 0.30 | 71 | 1007.6 |
| 20260505031533 | 2 | 233 | 6.4 | 17.7 | 0.00 | 0.30 | 0.30 | 72 | 1007.8 |
| 20260505030032 | 2 | 250 | 8.0 | 22.5 | 0.00 | 0.30 | 0.30 | 71 | 1007.4 |
| 20260505024533 | 2 | 263 | 6.4 | 27.4 | 0.00 | 0.30 | 0.30 | 73 | 1007.5 |
| 20260505023032 | 2 | 217 | 6.4 | 24.1 | 0.00 | 0.30 | 0.30 | 73 | 1007.6 |
| 20260505021532 | 2 | 270 | 4.8 | 19.3 | 0.00 | 0.30 | 0.30 | 73 | 1007.7 |
| 20260505020030 | 2 | 342 | 6.4 | 16.1 | 0.00 | 0.30 | 0.30 | 74 | 1007.7 |
| 20260505014530 | 2 | 269 | 8.0 | 19.3 | 0.00 | 0.30 | 0.30 | 76 | 1007.8 |
| 20260505013036 | 2 | 236 | 6.4 | 22.5 | 0.00 | 0.33 | 0.30 | 77 | 1007.9 |
| 20260505011530 | 3 | 284 | 8.0 | 22.5 | 0.00 | 0.33 | 0.30 | 76 | 1007.9 |
| 20260505010030 | 3 | 214 | 6.4 | 17.7 | 0.00 | 0.33 | 0.30 | 75 | 1007.8 |
| 20260505004532 | 3 | 272 | 8.0 | 27.4 | 0.00 | 0.33 | 0.30 | 75 | 1007.9 |
| 20260505003034 | 4 | 325 | 8.0 | 27.4 | 0.00 | 0.33 | 0.30 | 70 | 1007.6 |
| 20260505001532 | 6 | 277 | 4.8 | 29.0 | 0.00 | 0.33 | 0.30 | 66 | 1007.4 |
| 20260505000040 | 6 | 155 | 3.2 | 14.5 | 0.00 | 0.33 | 0.30 | 65 | 1007.3 |
| 20260504234533 | 5 | 249 | 6.4 | 19.3 | 0.00 | 0.33 | 0.30 | 66 | 1007.2 |
| 20260504233029 | 5 | 284 | 8.0 | 24.1 | 0.00 | 0.33 | 0.30 | 66 | 1007.2 |
| 20260504231529 | 5 | 211 | 4.8 | 12.9 | 0.00 | 0.33 | 0.30 | 64 | 1007.2 |
| 20260504230029 | 6 | 95 | 4.8 | 14.5 | 0.03 | 0.33 | 0.30 | 62 | 1007.4 |
| 20260504224527 | 5 | 194 | 9.7 | 22.5 | 0.03 | 0.33 | 0.30 | 62 | 1007.3 |
| 20260504223027 | 6 | 163 | 8.0 | 17.7 | 0.08 | 0.33 | 0.30 | 62 | 1007.4 |
| 20260504221528 | 5 | 232 | 11.3 | 22.5 | 0.10 | 0.33 | 0.30 | 61 | 1007.7 |
| 20260504220037 | 5 | 229 | 9.7 | 35.4 | 0.10 | 0.30 | 0.28 | 63 | 1007.2 |
| 20260504214527 | 5 | 188 | 14.5 | 35.4 | 0.13 | 0.30 | 0.28 | 66 | 1007.0 |
| 20260504213027 | 5 | 227 | 11.3 | 25.7 | 0.13 | 0.28 | 0.25 | 71 | 1007.1 |